TimeCST,TemperatureF,Dew PointF,Humidity,Sea Level PressureIn,VisibilityMPH,Wind Direction,Wind SpeedMPH,Gust SpeedMPH,PrecipitationIn,Events,Conditions,WindDirDegrees,DateUTC
12:13 AM,32.0,24.8,75,29.79,10.0,Calm,Calm,-,N/A,,Overcast,0,2014-02-20 06:13:00
12:15 AM,31.8,24.1,73,29.79,10.0,Calm,Calm,-,N/A,,Overcast,0,2014-02-20 06:15:00
12:35 AM,32.0,24.8,75,29.79,7.0,SSE,3.5,-,N/A,,Overcast,160,2014-02-20 06:35:00
12:55 AM,34.0,25.7,72,29.79,10.0,SSE,4.6,-,N/A,,Overcast,160,2014-02-20 06:55:00
12:56 AM,33.8,26.6,75,29.79,10.0,SSE,4.6,-,N/A,,Overcast,160,2014-02-20 06:56:00
1:14 AM,33.8,24.8,70,29.79,10.0,SSE,3.5,-,N/A,,Overcast,150,2014-02-20 07:14:00
1:15 AM,33.6,25.3,72,29.79,10.0,SSE,3.5,-,N/A,,Overcast,150,2014-02-20 07:15:00
1:35 AM,31.8,23.7,72,29.79,10.0,SE,3.5,-,N/A,,Scattered Clouds,140,2014-02-20 07:35:00
1:45 AM,32.0,24.8,75,29.79,10.0,SE,5.8,-,N/A,,Scattered Clouds,140,2014-02-20 07:45:00
1:55 AM,32.0,24.8,75,29.79,10.0,SE,5.8,-,N/A,,Clear,130,2014-02-20 07:55:00
2:15 AM,29.8,23.5,77,29.78,10.0,SE,4.6,-,N/A,,Clear,130,2014-02-20 08:15:00
2:35 AM,31.8,24.8,75,29.77,10.0,ESE,5.8,-,N/A,,Clear,110,2014-02-20 08:35:00
2:38 AM,32.0,24.8,75,29.77,10.0,ESE,4.6,-,N/A,,Clear,120,2014-02-20 08:38:00
2:54 AM,30.2,24.8,80,29.76,10.0,ESE,4.6,-,N/A,,Clear,120,2014-02-20 08:54:00
2:55 AM,30.9,24.1,76,29.76,10.0,ESE,4.6,-,N/A,,Clear,120,2014-02-20 08:55:00
3:14 AM,28.4,23.0,80,29.75,10.0,ESE,5.8,-,N/A,,Clear,120,2014-02-20 09:14:00
3:15 AM,29.3,22.8,77,29.75,10.0,SE,5.8,-,N/A,,Clear,130,2014-02-20 09:15:00
3:33 AM,28.4,21.2,74,29.74,10.0,SSE,4.6,-,N/A,,Clear,150,2014-02-20 09:33:00
3:35 AM,28.4,21.6,76,29.74,10.0,SE,4.6,-,N/A,,Clear,140,2014-02-20 09:35:00
3:55 AM,29.3,22.8,77,29.73,10.0,SE,4.6,-,N/A,,Clear,130,2014-02-20 09:55:00
4:14 AM,26.6,21.2,80,29.73,10.0,ESE,5.8,-,N/A,,Clear,120,2014-02-20 10:14:00
4:15 AM,26.6,20.8,79,29.73,10.0,ESE,5.8,-,N/A,,Clear,120,2014-02-20 10:15:00
4:34 AM,28.4,21.2,74,29.72,10.0,ESE,3.5,-,N/A,,Clear,110,2014-02-20 10:34:00
4:35 AM,29.3,22.6,76,29.72,10.0,ESE,3.5,-,N/A,,Clear,110,2014-02-20 10:35:00
4:54 AM,26.6,19.4,74,29.72,10.0,ESE,5.8,-,N/A,,Clear,120,2014-02-20 10:54:00
4:55 AM,26.6,20.5,78,29.72,10.0,ESE,5.8,-,N/A,,Clear,120,2014-02-20 10:55:00
5:14 AM,26.6,21.2,80,29.72,10.0,ESE,5.8,-,N/A,,Clear,120,2014-02-20 11:14:00
5:15 AM,27.5,21.0,77,29.72,10.0,ESE,5.8,-,N/A,,Clear,120,2014-02-20 11:15:00
5:34 AM,26.6,19.4,74,29.71,10.0,ESE,5.8,-,N/A,,Clear,120,2014-02-20 11:34:00
5:35 AM,26.6,20.1,77,29.71,10.0,ESE,6.9,-,N/A,,Clear,120,2014-02-20 11:35:00
5:53 AM,26.6,19.4,74,29.71,10.0,SE,5.8,-,N/A,,Clear,130,2014-02-20 11:53:00
5:55 AM,26.6,19.6,75,29.71,10.0,SE,5.8,-,N/A,,Clear,130,2014-02-20 11:55:00
6:14 AM,26.6,19.4,74,29.70,10.0,ESE,5.8,-,N/A,,Clear,110,2014-02-20 12:14:00
6:15 AM,26.6,19.4,74,29.70,10.0,ESE,5.8,-,N/A,,Clear,110,2014-02-20 12:15:00
6:34 AM,26.6,19.4,74,29.70,10.0,ESE,3.5,-,N/A,,Clear,110,2014-02-20 12:34:00
6:35 AM,26.8,18.7,72,29.70,10.0,ESE,3.5,-,N/A,,Clear,110,2014-02-20 12:35:00
6:54 AM,26.6,17.6,69,29.70,10.0,ESE,6.9,-,N/A,,Clear,120,2014-02-20 12:54:00
6:55 AM,26.2,18.5,73,29.70,10.0,ESE,6.9,-,N/A,,Clear,120,2014-02-20 12:55:00
7:14 AM,28.4,19.4,69,29.69,10.0,ESE,6.9,-,N/A,,Scattered Clouds,110,2014-02-20 13:14:00
7:34 AM,28.4,19.4,69,29.69,10.0,ESE,6.9,-,N/A,,Overcast,120,2014-02-20 13:34:00
7:35 AM,29.3,19.9,68,29.69,10.0,ESE,8.1,-,N/A,,Overcast,120,2014-02-20 13:35:00
7:54 AM,30.2,21.2,69,29.69,10.0,SE,8.1,-,N/A,,Overcast,130,2014-02-20 13:54:00
7:55 AM,30.9,20.7,66,29.69,10.0,SE,9.2,-,N/A,,Overcast,130,2014-02-20 13:55:00
8:14 AM,32.0,19.4,60,29.68,10.0,SE,9.2,-,N/A,,Overcast,130,2014-02-20 14:14:00
8:15 AM,31.8,20.5,63,29.68,10.0,SE,9.2,-,N/A,,Overcast,130,2014-02-20 14:15:00
8:35 AM,32.0,19.4,60,29.68,10.0,SE,9.2,-,N/A,,Overcast,130,2014-02-20 14:35:00
8:54 AM,32.0,19.4,60,29.68,10.0,SE,8.1,-,N/A,,Overcast,130,2014-02-20 14:54:00
8:55 AM,31.8,19.4,60,29.68,10.0,SE,8.1,-,N/A,,Overcast,130,2014-02-20 14:55:00
9:15 AM,32.0,19.4,60,29.67,10.0,SE,10.4,-,N/A,,Overcast,130,2014-02-20 15:15:00
9:34 AM,33.8,21.2,60,29.66,10.0,SE,9.2,17.3,N/A,,Overcast,140,2014-02-20 15:34:00
9:35 AM,34.0,20.7,58,29.66,10.0,SE,9.2,17.3,N/A,,Overcast,140,2014-02-20 15:35:00
9:54 AM,33.8,19.4,56,29.63,10.0,SE,15.0,20.7,N/A,,Overcast,130,2014-02-20 15:54:00
9:55 AM,34.0,20.5,58,29.63,10.0,SE,15.0,20.7,N/A,,Overcast,130,2014-02-20 15:55:00
10:14 AM,33.8,19.4,56,29.65,10.0,SE,12.7,17.3,N/A,,Overcast,140,2014-02-20 16:14:00
10:15 AM,34.0,20.3,57,29.65,10.0,SSE,13.8,17.3,N/A,,Overcast,150,2014-02-20 16:15:00
10:34 AM,37.4,21.2,52,29.66,10.0,SSE,6.9,-,N/A,,Overcast,160,2014-02-20 16:34:00
10:35 AM,36.5,22.1,56,29.66,10.0,SSE,8.1,-,N/A,,Overcast,160,2014-02-20 16:35:00
10:54 AM,37.4,23.0,56,29.65,10.0,SSE,5.8,-,N/A,,Overcast,160,2014-02-20 16:54:00
10:55 AM,36.5,23.0,58,29.65,10.0,SSE,5.8,-,N/A,,Overcast,150,2014-02-20 16:55:00
11:14 AM,37.4,24.8,60,29.64,10.0,SE,8.1,-,N/A,,Overcast,140,2014-02-20 17:14:00
11:35 AM,37.4,24.8,60,29.62,10.0,SE,9.2,-,N/A,,Overcast,140,2014-02-20 17:35:00
11:54 AM,39.2,28.4,65,29.60,10.0,SSE,10.4,16.1,N/A,,Overcast,150,2014-02-20 17:54:00
12:13 PM,39.2,30.2,70,29.59,10.0,SSE,12.7,18.4,N/A,,Overcast,150,2014-02-20 18:13:00
12:15 PM,39.2,30.0,70,29.59,10.0,SE,12.7,18.4,N/A,,Overcast,140,2014-02-20 18:15:00
12:35 PM,37.8,29.8,73,29.57,10.0,SE,11.5,17.3,N/A,,Overcast,130,2014-02-20 18:35:00
12:38 PM,37.4,30.2,75,29.57,10.0,SE,11.5,18.4,N/A,,Overcast,130,2014-02-20 18:38:00
12:53 PM,37.4,30.2,75,29.56,10.0,SE,10.4,23.0,N/A,,Overcast,140,2014-02-20 18:53:00
12:55 PM,37.8,31.3,77,29.55,10.0,SE,10.4,23.0,N/A,,Overcast,130,2014-02-20 18:55:00
1:15 PM,36.5,30.7,80,29.54,10.0,SE,13.8,20.7,N/A,,Overcast,130,2014-02-20 19:15:00
1:19 PM,37.4,30.2,75,29.54,10.0,SE,12.7,20.7,N/A,,Overcast,130,2014-02-20 19:19:00
1:35 PM,36.5,30.2,78,29.53,10.0,SE,11.5,21.9,N/A,,Overcast,130,2014-02-20 19:35:00
1:40 PM,37.4,30.2,75,29.53,10.0,ESE,18.4,24.2,N/A,,Overcast,120,2014-02-20 19:40:00
1:55 PM,36.5,30.7,80,29.52,10.0,ESE,11.5,20.7,N/A,,Overcast,120,2014-02-20 19:55:00
2:08 PM,37.4,30.2,75,29.50,10.0,ESE,15.0,18.4,N/A,,Overcast,120,2014-02-20 20:08:00
2:15 PM,36.5,31.1,81,29.50,10.0,SE,16.1,23.0,N/A,,Overcast,130,2014-02-20 20:15:00
2:33 PM,37.4,32.0,81,29.47,10.0,ESE,13.8,24.2,N/A,,Overcast,110,2014-02-20 20:33:00
2:35 PM,36.5,32.0,84,29.47,10.0,ESE,17.3,21.9,N/A,,Overcast,120,2014-02-20 20:35:00
2:53 PM,37.4,32.0,81,29.44,10.0,ESE,16.1,21.9,N/A,,Overcast,120,2014-02-20 20:53:00
3:14 PM,37.4,30.2,75,29.41,10.0,ESE,10.4,18.4,N/A,,Overcast,120,2014-02-20 21:14:00
3:34 PM,37.4,30.2,75,29.39,10.0,ESE,11.5,21.9,N/A,,Overcast,110,2014-02-20 21:34:00
3:54 PM,37.4,30.2,75,29.39,10.0,ESE,17.3,25.3,N/A,,Overcast,110,2014-02-20 21:54:00
4:13 PM,37.4,30.2,75,29.39,10.0,ESE,12.7,21.9,N/A,,Overcast,110,2014-02-20 22:13:00
5:15 PM,36.5,30.6,79,29.33,10.0,East,15.0,23.0,N/A,,Overcast,100,2014-02-20 23:15:00
5:35 PM,36.5,30.6,79,29.31,10.0,East,12.7,26.5,N/A,,Overcast,100,2014-02-20 23:35:00
5:55 PM,36.5,31.5,82,29.28,3.0,ESE,19.6,29.9,N/A,Snow,Light Snow,110,2014-02-20 23:55:00
6:15 PM,34.0,31.1,89,29.26,1.0,East,12.7,25.3,N/A,Snow,Snow,100,2014-02-21 00:15:00
6:35 PM,32.9,30.9,92,29.24,0.8,ESE,8.1,18.4,0.02,Snow,Heavy Snow,110,2014-02-21 00:35:00
6:55 PM,32.9,31.1,93,29.22,0.2,East,11.5,25.3,0.04,Snow,Heavy Snow,100,2014-02-21 00:55:00
7:15 PM,32.9,31.1,93,29.21,0.8,East,10.4,17.3,0.03,Snow,Snow,100,2014-02-21 01:15:00
7:35 PM,32.0,30.6,94,29.16,0.8,East,8.1,17.3,0.05,Snow,Snow,80,2014-02-21 01:35:00
7:55 PM,32.0,30.2,93,29.14,1.2,East,9.2,-,0.07,Snow,Light Snow,80,2014-02-21 01:55:00
8:15 PM,32.2,30.2,92,29.10,1.8,East,9.2,16.1,0.06,Snow,Light Snow,90,2014-02-21 02:15:00
8:35 PM,32.9,30.4,90,29.09,4.0,East,12.7,25.3,0.08,Snow,Light Snow,90,2014-02-21 02:35:00
8:55 PM,32.9,29.7,88,29.07,7.0,East,8.1,21.9,0.08,,Overcast,100,2014-02-21 02:55:00
9:15 PM,32.9,29.7,88,29.06,2.5,ESE,13.8,20.7,0.01,Snow,Light Snow,110,2014-02-21 03:15:00
9:35 PM,32.0,29.7,91,29.03,2.5,ESE,9.2,16.1,0.03,Snow,Light Snow,110,2014-02-21 03:35:00
9:55 PM,32.0,29.3,90,29.01,1.2,ESE,9.2,19.6,0.04,Snow,Light Snow,110,2014-02-21 03:55:00
10:15 PM,31.8,29.3,90,29.00,3.0,ESE,10.4,17.3,0.02,Snow,Light Snow,110,2014-02-21 04:15:00
10:35 PM,32.0,29.3,90,29.00,4.0,Calm,Calm,-,0.02,Snow,Light Snow,0,2014-02-21 04:35:00
10:55 PM,31.8,29.7,92,28.98,0.5,North,3.5,-,0.06,Snow,Heavy Snow,10,2014-02-21 04:55:00
11:15 PM,31.8,29.8,92,28.96,1.2,North,4.6,-,0.01,Snow,Light Snow,360,2014-02-21 05:15:00
11:35 PM,31.8,30.0,93,28.95,0.8,North,5.8,-,0.03,Snow,Snow,350,2014-02-21 05:35:00
11:55 PM,31.8,30.2,94,28.93,0.8,North,5.8,-,0.05,Snow,Heavy Snow,350,2014-02-21 05:55:00